Meteo Giornale » Osservazioni meteo Svizzera » Lugano

ore: 05:50 - Osservazioni Meteo Lugano
Lat. 46° 0' N Lon. 8° 58' E Alt. 273 metri s.l.m.

sereno Europe/Zurich

18 °C

Sereno

Temp. 24 Ore

16 °C

29 °C

Nord

3.7 Km/h

Dew point 17 °C

Umidità 93 %

Visibilità  10 Km

Il sole sorge alle ore 06:02

Il sole tramonta alle ore 20:58

Data e Ora Cielo e Fenomeni T °C DP °C Um. % Pres. hPa Vis. km Vento km/h
Oggi h: 05:50 sereno Sereno 18 17 93 1014 10 N 3.7
Oggi h: 05:20 sereno Sereno 18 17 93 1014 10 N 1.8
Oggi h: 04:50 sereno Sereno 18 17 93 1014 10 N 3.7
Oggi h: 04:20 sereno Sereno 18 17 93 1014 10 N 5.5
Oggi h: 03:50 sereno Sereno 18 17 93 1014 10 N 1.8
Oggi h: 03:20 sereno Sereno 19 18 93 1014 10 N 1.8
Oggi h: 02:50 sereno Sereno 19 18 93 1014 10 N 1.8
Oggi h: 02:20 sereno Sereno 19 18 93 1014 10 N 1.8
Oggi h: 01:50 sereno Sereno 19 18 93 1014 10 N 1.8
Oggi h: 01:20 poco_nuvoloso Poco Nuvoloso 20 18 88 1014 10 N 3.7
Oggi h: 00:50 sereno Sereno 20 18 88 1014 10 N 1.8
Oggi h: 00:20 sereno Sereno 20 19 93 1014 10 N 1.8
Ieri h: 23:50 sereno Sereno 20 19 93 1014 10 N 3.7
Ieri h: 23:20 sereno Sereno 20 19 93 1014 10 N 5.5
Ieri h: 22:50 sereno Sereno 21 18 82 1014 10 N 1.8
Ieri h: 22:20 sereno Sereno 22 18 78 1014 10 N 1.8
Ieri h: 21:50 sereno Sereno 22 19 83 1014 10 N 3.7
Ieri h: 21:20 coperto_pioggia Pioggia Debole 22 19 83 1013 10 N 7.4
Ieri h: 20:50 sereno Sereno 24 19 73 1013 10 N 1.8
Ieri h: 20:20 poco_nuvoloso Poco Nuvoloso 26 19 65 1013 10 N 5.5
Ieri h: 19:50 poco_nuvoloso Poco Nuvoloso 26 19 65 1013 10 N 1.8
Ieri h: 19:20 sereno Sereno 27 19 61 1013 10 N 3.7
Ieri h: 18:50 sereno Sereno 28 19 58 1013 10 N 5.5
Ieri h: 18:20 sereno Sereno 29 18 51 1013 10 N 5.5
Ieri h: 17:50 sereno Sereno 29 18 51 1013 10 S 9.3
Ieri h: 17:20 sereno Sereno 29 18 51 1013 10 S 9.3
Ieri h: 16:50 poco_nuvoloso Poco Nuvoloso 29 18 51 1013 10 S 9.3
Ieri h: 16:20 poco_nuvoloso Poco Nuvoloso 29 17 48 1014 10 S 9.3
Ieri h: 15:50 poco_nuvoloso Poco Nuvoloso 29 18 51 1014 10 S 7.4
Ieri h: 15:20 poco_nuvoloso Poco Nuvoloso 29 18 51 1014 10 S 9.3
Ieri h: 14:50 poco_nuvoloso Poco Nuvoloso 29 17 48 1014 10 S 9.3
Ieri h: 14:20 poco_nuvoloso Poco Nuvoloso 28 19 58 1015 10 S 7.4
Ieri h: 13:50 poco_nuvoloso Poco Nuvoloso 28 18 54 1015 10 S 7.4
Ieri h: 13:20 poco_nuvoloso Poco Nuvoloso 27 19 61 1015 10 S 7.4
Ieri h: 12:50 poco_nuvoloso Poco Nuvoloso 27 18 57 1015 10 N 5.5
Ieri h: 12:20 poco_nuvoloso Poco Nuvoloso 25 17 61 1015 10 N 3.7
Ieri h: 11:50 poco_nuvoloso Poco Nuvoloso 25 18 65 1016 10 N 1.8
Ieri h: 11:20 poco_nuvoloso Poco Nuvoloso 24 17 64 1016 10 N 3.7
Ieri h: 10:50 poco_nuvoloso Poco Nuvoloso 24 17 64 1016 10 N 3.7
Ieri h: 10:20 nuvoloso Nuvoloso 22 17 73 1016 10 N 1.8
Ieri h: 09:50 nuvoloso Nuvoloso 21 16 73 1016 10 N 3.7
Ieri h: 09:20 nuvoloso Nuvoloso 20 17 82 1016 10 N 1.8
Ieri h: 08:50 molto_nuvoloso Molto Nuvoloso 20 18 88 1016 10 N 1.8
Ieri h: 08:20 molto_nuvoloso Molto Nuvoloso 18 17 93 1016 10 N 1.8
Ieri h: 07:50 molto_nuvoloso Molto Nuvoloso 17 16 93 1016 10 N 1.8
Ieri h: 07:20 nuvoloso Nuvoloso 16 16 100 1016 10 N 3.7
Ieri h: 06:50 nuvoloso Nuvoloso 16 16 100 1016 10 N 3.7